TimeEST,TemperatureF,Dew PointF,Humidity,Sea Level PressureIn,VisibilityMPH,Wind Direction,Wind SpeedMPH,Gust SpeedMPH,PrecipitationIn,Events,Conditions,WindDirDegrees,DateUTC
12:56 AM,63.0,61.0,93,30.11,8.0,South,6.9,-,0.01,,Clear,180,2013-01-30 05:56:00
1:56 AM,66.0,63.0,90,30.08,10.0,South,10.4,-,N/A,,Mostly Cloudy,180,2013-01-30 06:56:00
2:07 AM,66.2,62.6,88,30.07,10.0,South,8.1,-,N/A,,Scattered Clouds,180,2013-01-30 07:07:00
2:56 AM,66.9,63.0,87,30.06,10.0,South,6.9,-,N/A,,Clear,190,2013-01-30 07:56:00
3:56 AM,66.9,63.0,87,30.05,10.0,South,9.2,18.4,N/A,,Clear,190,2013-01-30 08:56:00
4:56 AM,66.9,62.1,84,30.04,10.0,SSW,8.1,-,N/A,,Overcast,200,2013-01-30 09:56:00
5:21 AM,66.2,62.6,88,30.03,10.0,SSW,8.1,-,N/A,,Overcast,200,2013-01-30 10:21:00
5:56 AM,66.9,63.0,87,30.03,10.0,SSW,5.8,-,N/A,,Overcast,200,2013-01-30 10:56:00
6:41 AM,66.2,62.6,88,30.02,10.0,South,6.9,-,N/A,,Overcast,190,2013-01-30 11:41:00
6:49 AM,66.2,62.6,88,30.01,10.0,South,9.2,-,N/A,,Overcast,170,2013-01-30 11:49:00
6:56 AM,66.9,63.0,87,30.01,10.0,South,12.7,-,N/A,,Overcast,180,2013-01-30 11:56:00
7:51 AM,68.0,62.6,83,30.01,10.0,SSW,8.1,-,N/A,,Overcast,200,2013-01-30 12:51:00
7:56 AM,68.0,63.0,84,30.02,10.0,SSW,10.4,-,N/A,,Overcast,200,2013-01-30 12:56:00
8:56 AM,68.0,63.0,84,29.99,10.0,SSW,10.4,18.4,N/A,,Mostly Cloudy,200,2013-01-30 13:56:00
9:38 AM,69.8,62.6,78,30.00,10.0,SSW,13.8,25.3,N/A,,Mostly Cloudy,210,2013-01-30 14:38:00
9:56 AM,70.0,63.0,78,29.99,10.0,SSW,12.7,25.3,N/A,,Mostly Cloudy,200,2013-01-30 14:56:00
10:56 AM,73.0,62.1,68,29.99,10.0,SSW,17.3,27.6,N/A,,Mostly Cloudy,200,2013-01-30 15:56:00
11:56 AM,72.0,62.1,71,29.96,10.0,SSW,25.3,38.0,N/A,,Mostly Cloudy,200,2013-01-30 16:56:00
12:56 PM,73.0,63.0,71,29.91,10.0,SSW,17.3,33.4,N/A,,Mostly Cloudy,200,2013-01-30 17:56:00
1:56 PM,73.0,62.1,68,29.86,10.0,South,19.6,33.4,N/A,,Mostly Cloudy,190,2013-01-30 18:56:00
2:22 PM,73.4,62.6,69,29.85,10.0,South,17.3,32.2,N/A,,Mostly Cloudy,190,2013-01-30 19:22:00
2:56 PM,73.9,61.0,64,29.83,10.0,South,23.0,34.5,N/A,,Scattered Clouds,190,2013-01-30 19:56:00
3:56 PM,73.0,61.0,66,29.81,10.0,South,17.3,31.1,N/A,,Scattered Clouds,190,2013-01-30 20:56:00
4:56 PM,70.0,60.1,71,29.77,10.0,South,19.6,28.8,N/A,,Partly Cloudy,190,2013-01-30 21:56:00
5:56 PM,69.1,61.0,75,29.76,10.0,SSW,17.3,29.9,N/A,,Scattered Clouds,200,2013-01-30 22:56:00
6:56 PM,68.0,60.1,76,29.73,10.0,SSW,15.0,27.6,N/A,,Clear,200,2013-01-30 23:56:00
7:56 PM,68.0,60.1,76,29.74,10.0,SSW,15.0,21.9,N/A,,Clear,200,2013-01-31 00:56:00
8:56 PM,68.0,61.0,78,29.72,10.0,SSW,15.0,23.0,N/A,,Overcast,200,2013-01-31 01:56:00
9:56 PM,68.0,61.0,78,29.69,10.0,South,24.2,39.1,N/A,,Overcast,190,2013-01-31 02:56:00
10:39 PM,64.4,60.8,88,29.76,2.5,WNW,20.7,31.1,0.07,Rain,Heavy Rain,290,2013-01-31 03:39:00
10:42 PM,62.6,59.0,88,29.76,3.0,WNW,17.3,29.9,0.07,Rain,Rain,300,2013-01-31 03:42:00
10:56 PM,60.1,55.9,86,29.76,10.0,West,19.6,28.8,0.08,Rain,Light Rain,280,2013-01-31 03:56:00
11:12 PM,57.2,53.6,88,29.79,10.0,West,21.9,28.8,0.00,Rain,Light Rain,280,2013-01-31 04:12:00
11:56 PM,54.0,48.9,83,29.81,6.0,West,23.0,36.8,0.02,Rain,Light Rain,280,2013-01-31 04:56:00